Regional Weather Roundup
Issued by NWS State College, PA

Home | Current Version | Previous Version | Text Only | Print | Product List | Glossary Off
Versions: 1 2 3 4 5 6 7 8 9 10 11 12 13 14 15 16 17 18 19 20 21 22 23 24 25 26 27 28 29 30 31 32 33 34 35 36 37 38 39 40 41 42 43 44 45 46 47 48 49 50

000
ASUS41 KCTP 031410
RWRCTP

REGIONAL WEATHER ROUNDUP
NATIONAL WEATHER SERVICE STATE COLLEGE PA
1000 AM EDT FRI JUL 03 2015

Note: "fair" indicates few or no clouds below 12,000 feet with no
significant weather and/or obstructions to visibility.

* = STATION THAT DOES NOT REPORT PRECIPITATION /E.G. RAIN...SNOW...ETC/
    THUNDER OR FOG.

PAZ002>004-007>009-013>016-020>023-029>032-031500-
WESTERN PENNSYLVANIA

CITY           SKY/WX    TMP DP  RH WIND       PRES   REMARKS
ERIE           SUNNY     69  45  41 E10       30.01F
MEADVILLE      SUNNY     65  50  58 NE7       30.01F
FRANKLIN*      SUNNY     63  54  72 CALM      30.03S
NEW CASTLE     FAIR      66  60  81 CALM      30.00F
BEAVER COUNTY  SUNNY     66  59  77 CALM      29.99S
BUTLER*        SUNNY     68  61  77 E5        30.01S
PITTSBURGH INT PTSUNNY   70  59  68 NE3       29.98S
PITTSBURGH     SUNNY     69  57  65 CALM      29.97F
INDIANA*       SUNNY     66  61  82 E6        30.03F
LATROBE        MOSUNNY   66  64  94 CALM      29.99F
WASHINGTON CO* NOT AVBL
$$

PAZ004>006-010>012-017>019-024>028-033>037-041-042-045-046-049>053-031500-
CENTRAL PENNSYLVANIA

CITY           SKY/WX    TMP DP  RH WIND       PRES   REMARKS
BRADFORD       MOSUNNY   62  46  55 SE7       30.04F
DUBOIS         SUNNY     66  53  63 SE8       30.01F
CLEARFIELD     SUNNY     64  54  69 NE6       30.03F
JOHNSTOWN      MOSUNNY   64  59  83 E5        30.02F
ALTOONA        CLOUDY    65  60  84 N3        30.03S
STATE COLLEGE  MOSUNNY   64  55  72 NE6       30.03F
WILLIAMSPORT   SUNNY     67  49  52 SE3       30.01F
SELINSGROVE    MOSUNNY   70  53  54 N6        30.02F
FT INDIANTOWN  SUNNY     71  55  55 E6        30.00S
CAPITAL CITY   SUNNY     72  58  61 E7        30.00S
HARRISBURG     SUNNY     72  60  66 SW5       29.99S
YORK           SUNNY     71  62  73 SE5       30.00S
$$

PAZ038>040-043-044-047-048-054-055-060>062-067>071-031500-
EASTERN PENNSYLVANIA

CITY           SKY/WX    TMP DP  RH WIND       PRES   REMARKS
SCRANTON       SUNNY     69  49  48 N8        30.03F
MOUNT POCONO   SUNNY     65  44  46 N7        30.04F
ALLENTOWN      SUNNY     71  52  50 E6        30.01S
QUAKERTOWN*    SUNNY     70  55  60 N5        30.02S
READING        SUNNY     71  54  54 N7        29.99S
LANCASTER      SUNNY     71  57  61 E8        29.99S
COATESVILLE    SUNNY     72  57  60 E7        30.01S
POTTSTOWN      SUNNY     70  56  61 NE7       30.01S
BLUE BELL      SUNNY     73  59  60 NE3       29.99S
DOYLESTOWN     SUNNY     73  53  49 NE6       30.00R
WILLOW GROVE   NOT AVBL
NORTH PHILA    SUNNY     75  57  53 NE7       30.01R
PHILADELPHIA   PTSUNNY   76  60  57 E7        29.99S
$$



USA.gov is the U.S. government's official web portal to all federal, state and local government web resources and services.